Theta_e
326 325 324 323 322 321 321 319 318 318 316 316 316 309 303 301 301 300 300 299 299 299 299 299 299 299 298 298 298 298 298 299 298 297 297 296 297 298 299 300 299 297
324 323 322 321 321 320 320 318 317 317 314 313 312 305 299 300 299 298 298 298 298 298 298 299 298 298 298 298 298 298 298 297 297 297 297 296 297 297 299 300 298 296
323 321 320 319 319 319 319 318 317 315 312 309 306 301 298 299 298 298 298 298 298 298 298 298 298 298 298 297 298 297 297 297 298 298 296 296 297 297 298 298 297 296
321 319 318 318 318 317 318 317 316 314 308 303 301 298 297 298 297 297 298 297 298 298 298 298 297 298 297 297 297 297 297 298 298 297 296 295 296 297 297 297 296 296
318 316 317 317 317 317 316 315 315 311 304 299 298 298 297 297 297 297 297 297 297 297 297 297 297 297 297 297 297 297 297 297 297 297 296 296 296 296 297 296 296 296
316 315 315 315 315 316 314 313 312 306 299 297 298 297 297 297 297 297 297 297 297 297 297 297 297 297 297 297 297 296 296 296 297 297 297 298 297 296 296 296 295 295
315 314 314 314 314 313 312 311 308 301 297 298 297 297 297 297 297 297 297 297 297 297 296 296 297 296 296 297 296 297 297 296 297 298 299 299 298 296 296 296 295 295
313 313 312 312 311 310 310 307 302 298 299 298 297 296 297 297 297 297 297 296 296 296 296 296 296 296 296 296 296 297 297 296 297 298 300 299 298 296 296 296 295 294
312 311 310 310 309 308 306 302 299 299 299 298 296 297 297 296 296 296 296 296 296 296 296 296 296 296 296 296 296 297 297 297 297 298 299 298 297 297 296 295 295 294
311 310 310 310 309 306 302 299 299 300 299 297 297 297 297 296 296 296 296 296 296 296 295 296 296 295 295 295 296 297 297 299 299 298 298 298 298 297 297 295 294 294
311 310 310 310 307 303 300 299 299 299 298 298 297 296 296 296 296 296 296 296 296 295 295 295 295 295 295 295 296 297 298 300 300 298 298 299 298 298 298 296 295 295
311 311 310 308 304 301 299 299 299 298 298 297 296 296 296 296 296 296 295 295 296 295 295 295 295 295 294 295 296 297 298 299 298 298 299 299 299 298 298 297 295 295
311 311 310 307 303 301 299 299 299 299 298 297 296 296 296 296 296 295 295 296 295 295 295 295 295 295 294 296 296 297 298 297 297 298 299 299 299 299 298 297 296 296
310 310 308 306 303 301 299 298 298 298 297 296 296 296 295 295 295 295 295 295 295 295 295 294 294 294 294 295 296 297 298 298 297 298 299 298 299 299 298 297 297 296
309 308 306 304 302 301 299 297 297 297 297 296 296 295 295 295 295 295 295 295 295 295 295 294 294 294 294 295 296 296 298 298 298 298 298 298 298 298 298 297 297 296
307 306 304 303 302 301 299 297 297 296 296 295 295 295 294 294 294 294 294 294 294 294 294 294 294 294 294 294 295 296 297 299 299 298 298 297 297 297 297 297 297 297
306 305 304 302 302 300 299 298 297 296 295 295 295 294 294 294 294 294 294 294 294 294 294 294 293 294 294 294 295 296 297 298 299 299 298 297 296 297 297 297 297 297
306 305 303 302 301 300 299 298 297 296 295 295 295 295 294 294 293 293 293 293 293 293 293 293 293 293 293 294 294 295 296 297 298 298 298 297 296 296 297 297 297 296
305 304 302 301 300 299 298 298 297 297 296 296 296 295 293 293 293 293 293 293 293 293 293 293 293 293 293 293 293 293 294 295 296 297 298 297 296 296 297 297 297 297
303 302 301 300 299 298 298 297 297 296 296 297 296 294 293 293 293 293 293 293 292 293 293 293 293 292 292 292 292 292 292 293 294 295 296 297 296 296 296 296 296 296
301 301 299 298 298 297 296 296 296 296 296 296 296 294 293 293 293 293 293 293 292 292 293 293 292 292 292 292 291 291 291 292 292 293 295 296 296 296 296 296 295 294
300 299 299 297 297 296 295 295 295 295 295 295 295 295 294 293 292 293 293 292 292 292 292 292 292 292 292 291 291 291 291 291 291 292 293 295 296 295 296 295 294 293
300 299 298 297 296 295 295 294 294 295 295 294 295 295 295 293 292 292 292 292 292 292 292 292 292 292 292 291 291 291 291 291 291 291 292 293 294 295 295 294 293 293
299 298 296 296 295 294 294 294 294 294 294 294 294 294 294 293 292 292 292 292 292 292 292 292 292 292 292 291 291 291 291 291 291 291 291 292 293 294 294 294 293 294
298 297 296 295 294 294 294 294 294 294 294 294 294 293 293 292 292 292 293 293 293 293 293 293 293 292 292 292 292 292 292 291 291 291 291 292 292 293 293 293 293 294
298 297 296 295 294 294 294 294 294 294 294 293 293 293 293 292 293 294 295 295 295 295 295 294 294 293 292 292 292 292 292 292 292 292 292 292 292 293 293 293 293 293
Wind_Speed
16 15 14 13 11 11 10 8 8 7 6 7 6 6 8 8 8 7 6 6 5 5 4 3 3 2 2 2 1 1 0 1 2 4 3 2 2 3 4 5 6 7
15 14 14 13 11 10 9 8 8 7 6 6 7 9 9 8 8 8 7 6 5 5 4 3 3 3 3 2 2 1 0 1 2 4 3 2 2 3 5 8 8 8
15 14 13 13 11 10 10 10 9 7 5 8 10 10 9 9 9 8 7 6 5 5 4 3 4 4 3 3 2 1 0 1 2 3 2 2 2 4 6 8 9 9
15 13 12 12 11 11 12 11 9 7 8 11 12 11 10 9 9 8 7 6 5 4 4 4 3 4 4 3 3 2 1 1 2 3 2 1 2 3 5 8 9 9
14 13 13 13 13 13 13 12 9 9 12 13 13 12 10 9 8 7 6 5 5 4 4 3 3 3 3 3 3 3 2 1 2 2 1 2 3 4 5 8 9 10
13 14 15 15 15 15 13 11 10 12 14 14 13 12 10 9 7 6 5 5 5 4 4 3 3 2 2 3 3 3 3 2 2 1 2 3 5 6 7 9 10 10
14 16 17 17 16 15 13 12 13 15 15 14 13 12 10 8 7 6 6 6 6 5 4 4 3 3 2 2 2 2 2 2 1 2 3 5 7 8 10 10 11 10
16 17 17 17 16 15 14 15 16 16 15 14 13 11 9 8 7 7 7 7 7 7 6 5 4 3 2 1 2 2 1 2 1 2 4 6 8 10 11 12 11 11
18 17 17 16 16 15 16 17 17 16 15 14 12 11 10 9 9 8 8 8 7 7 7 6 4 3 2 1 1 1 0 2 2 2 4 6 9 12 13 14 13 13
18 17 16 16 15 16 17 18 18 16 15 14 13 11 10 10 10 9 9 8 7 7 6 6 5 4 3 1 0 0 1 3 3 3 4 6 10 13 15 16 15 16
18 17 16 16 17 18 19 19 18 17 16 14 13 11 10 11 10 9 9 8 7 7 6 6 5 4 3 2 2 2 2 3 3 3 4 6 9 12 16 17 15 17
19 18 17 17 19 19 19 19 18 17 16 15 12 11 11 11 10 9 8 7 7 7 6 5 5 4 3 3 2 2 3 3 3 4 4 5 8 10 14 16 15 17
21 19 19 19 20 20 20 19 18 17 16 14 12 11 11 11 9 8 8 8 7 7 7 6 5 4 4 3 3 3 2 3 5 5 3 5 7 8 12 15 15 17
22 21 20 21 21 21 20 20 19 17 16 14 12 12 12 10 9 8 8 8 8 7 7 6 5 5 4 4 4 3 3 4 6 6 3 5 5 7 10 13 15 16
22 22 22 23 22 21 20 19 19 18 16 15 13 12 12 10 9 8 8 8 8 8 7 6 6 5 5 4 4 4 4 5 6 5 3 4 5 6 9 13 14 15
24 24 24 24 23 22 21 20 19 19 17 15 14 13 12 10 9 9 8 8 8 8 7 7 6 6 6 5 5 5 5 5 4 5 4 5 5 5 7 11 12 13
25 25 25 24 24 22 21 20 19 19 18 16 14 14 12 11 10 10 9 9 8 8 8 8 7 7 6 6 5 6 5 4 4 3 2 2 3 3 5 7 9 12
26 26 26 25 25 23 21 20 19 19 18 16 15 14 13 12 11 10 10 9 9 8 8 8 8 8 7 6 5 4 3 3 3 3 2 2 2 3 3 4 8 11
27 28 27 26 26 24 22 20 19 19 17 16 15 15 13 12 11 10 10 10 9 8 8 9 8 8 8 6 5 3 1 1 2 3 3 3 3 3 3 2 6 11
29 29 28 27 26 24 22 21 21 20 18 16 15 15 14 13 12 11 10 10 9 8 8 8 8 8 8 7 6 4 3 2 3 4 5 5 5 5 4 3 6 11
30 29 28 27 25 24 23 22 21 20 19 17 16 16 14 13 12 11 10 10 9 8 8 8 8 8 8 7 6 5 4 4 3 3 5 6 6 6 5 6 9 10
30 29 28 27 26 24 23 23 22 21 19 17 17 17 15 13 12 11 10 10 10 9 8 7 8 8 7 7 6 5 5 5 4 2 3 5 6 6 7 8 9 9
30 29 28 27 26 25 24 23 22 21 20 18 16 17 16 14 13 12 10 10 10 10 9 8 8 8 8 8 7 6 5 5 4 3 2 3 5 6 7 6 7 9
30 29 28 28 27 25 24 23 22 21 20 18 16 16 16 16 14 13 12 11 11 11 10 10 10 9 9 9 8 7 6 5 4 4 3 2 3 3 3 3 7 10
29 29 28 27 26 25 24 23 22 21 19 18 16 16 17 17 16 14 13 12 12 11 11 11 11 11 10 10 10 9 8 7 6 5 4 2 2 2 2 4 7 9
29 29 28 27 25 24 24 23 22 21 20 19 18 17 17 17 16 14 12 11 11 10 11 11 11 12 11 11 11 11 10 9 7 6 6 6 6 6 5 6 7 10
Wind_Direction
229 230 235 239 234 226 226 236 249 260 274 276 251 193 168 163 163 169 183 191 198 206 211 214 199 183 191 187 197 216 36 33 60 68 61 43 26 9 8 12 12 16
233 235 239 242 233 221 225 240 251 265 268 240 206 180 168 167 169 175 187 190 192 194 195 195 180 166 170 169 170 177 41 44 63 68 64 46 22 0 7 19 25 31
237 239 239 238 231 223 224 234 247 257 227 190 180 175 172 172 176 181 186 187 189 189 183 183 177 168 166 162 160 152 124 74 71 67 55 34 19 359 3 16 24 31
238 233 227 224 223 223 223 230 241 231 191 176 172 174 177 177 182 186 186 187 186 181 176 176 176 176 174 170 170 160 146 86 65 59 38 33 22 0 7 18 24 29
234 219 212 212 213 217 221 228 230 203 179 172 171 176 181 183 185 186 185 183 178 174 173 172 176 182 182 180 175 159 137 93 62 48 26 44 27 6 19 25 27 32
218 205 203 204 208 214 219 218 206 185 174 172 175 180 184 186 185 182 179 174 169 169 168 170 177 181 184 187 183 165 137 109 69 27 10 26 22 12 18 23 28 37
202 197 200 203 206 209 208 198 184 176 174 177 180 184 186 188 186 178 173 167 163 163 163 173 186 189 194 205 210 196 142 118 78 18 13 16 17 16 18 23 35 46
189 189 192 193 191 190 188 182 177 176 179 184 187 187 186 188 187 179 173 168 165 164 166 174 185 191 204 230 244 240 160 121 90 26 12 12 19 25 26 30 43 49
178 179 179 178 177 178 178 176 177 180 186 192 192 190 187 184 183 179 175 171 168 168 170 173 177 180 179 212 259 259 124 113 97 33 9 15 30 35 33 34 43 42
175 176 177 178 178 177 175 176 180 185 190 195 194 190 186 182 180 178 175 172 168 168 171 172 175 174 168 165 211 187 76 87 75 26 10 25 36 36 30 32 39 34
178 181 185 185 181 176 175 178 182 187 191 195 195 188 181 181 180 177 174 171 169 167 169 173 173 169 164 154 147 134 98 88 60 23 19 28 33 28 22 25 31 25
185 191 193 188 180 176 177 180 184 189 192 193 194 187 182 183 182 177 173 172 172 168 165 168 167 161 159 155 149 139 121 96 66 53 37 24 26 20 13 17 22 18
193 198 196 188 182 179 180 182 185 190 193 193 190 184 185 187 182 178 176 172 170 165 161 163 163 159 158 155 154 148 137 97 81 79 42 12 16 10 5 10 16 16
199 199 192 187 183 180 180 181 185 189 193 193 188 181 185 187 181 179 176 171 166 161 159 158 153 155 156 153 151 145 131 99 89 87 46 11 8 359 360 6 10 12
197 191 187 185 184 182 181 181 184 189 194 196 188 181 184 184 178 175 171 168 164 157 154 148 142 148 148 141 141 137 127 109 96 89 51 8 350 349 0 4 4 4
190 187 185 185 185 185 184 183 185 190 195 195 186 181 182 181 176 170 165 163 158 150 144 138 138 141 136 129 129 131 131 124 113 99 64 11 340 342 354 357 357 356
188 187 187 186 186 187 186 186 188 192 194 190 183 180 179 176 172 166 160 155 147 141 137 133 133 129 121 118 119 126 137 143 144 135 105 14 343 349 346 343 348 349
190 190 188 188 189 189 189 189 191 193 192 187 182 180 175 171 169 162 152 143 138 135 130 123 118 111 106 105 107 118 143 162 172 185 214 268 328 358 343 336 344 343
193 192 190 190 191 191 191 192 193 194 194 189 182 177 172 168 165 156 145 135 130 126 119 111 105 99 96 93 89 92 104 239 235 239 263 274 295 329 344 345 335 333
193 194 193 192 192 193 192 193 194 195 196 192 183 178 173 166 160 153 142 133 126 119 112 107 103 97 92 87 80 75 60 353 293 268 272 278 286 307 323 321 321 333
193 194 194 193 193 194 193 192 194 197 197 193 185 181 176 165 157 152 142 132 122 112 107 104 99 94 90 85 78 71 59 34 2 292 267 274 286 298 307 318 332 355
194 194 195 195 194 194 193 192 194 197 197 193 185 182 178 168 157 150 140 129 118 109 104 99 95 93 89 84 76 64 52 39 22 353 269 264 281 298 314 328 348 22
195 196 196 196 195 194 194 193 193 194 195 192 187 181 176 169 158 146 136 126 117 111 105 97 93 90 84 76 69 57 43 31 17 9 330 270 277 297 318 341 17 37
196 197 198 197 196 195 193 192 190 191 191 189 185 176 167 163 158 147 135 127 119 111 102 92 84 79 73 67 62 53 42 29 15 10 6 313 275 290 322 27 49 41
196 198 199 198 196 194 192 191 189 188 186 182 178 171 161 156 154 146 135 126 118 106 93 81 71 65 59 53 50 43 32 24 20 20 33 60 109 123 104 82 60 42
197 199 200 199 197 193 191 191 189 184 181 177 173 167 159 152 148 143 134 124 113 99 84 71 59 51 46 42 40 34 23 21 27 38 54 72 89 98 91 70 51 39